| time (UTC) | temp F | wind direction | speed MPH | gust MPH | rain 1hr in | rain 24hr in | rain mn in | humidity % | barometer mb |
| 20260502190246 | 53 | 117 | 1.0 | 3.0 | 0.00 | 0.05 | 0.05 | 95 | 1010.7 |
| 20260502185747 | 53 | 147 | 0.0 | 2.0 | 0.00 | 0.05 | 0.05 | 95 | 1010.7 |
| 20260502185245 | 53 | 112 | 0.0 | 1.0 | 0.00 | 0.05 | 0.05 | 95 | 1010.7 |
| 20260502184746 | 53 | 98 | 0.0 | 2.0 | 0.00 | 0.05 | 0.05 | 95 | 1010.7 |
| 20260502184246 | 53 | 98 | 1.0 | 3.0 | 0.00 | 0.05 | 0.05 | 95 | 1010.7 |
| 20260502183747 | 53 | 98 | 0.0 | 1.0 | 0.00 | 0.05 | 0.05 | 95 | 1010.8 |
| 20260502182747 | 53 | 111 | 0.0 | 3.0 | 0.00 | 0.05 | 0.05 | 95 | 1010.8 |
| 20260502182247 | 53 | 121 | 0.0 | 2.0 | 0.00 | 0.05 | 0.05 | 95 | 1010.8 |
| 20260502181746 | 52 | 111 | 2.0 | 5.0 | 0.00 | 0.05 | 0.05 | 95 | 1010.8 |
| 20260502181246 | 52 | 93 | 2.0 | 5.0 | 0.00 | 0.05 | 0.05 | 95 | 1010.8 |
| 20260502180246 | 52 | 124 | 2.0 | 5.0 | 0.00 | 0.05 | 0.05 | 95 | 1010.9 |
| 20260502164247 | 53 | 135 | 3.0 | 7.0 | 0.01 | 0.04 | 0.04 | 94 | 1011.1 |
| 20260502163748 | 53 | 128 | 5.0 | 10.0 | 0.00 | 0.03 | 0.03 | 93 | 1011.2 |
| 20260502163247 | 53 | 133 | 6.0 | 10.0 | 0.00 | 0.03 | 0.03 | 93 | 1011.2 |
| 20260502162747 | 53 | 132 | 3.0 | 6.0 | 0.00 | 0.03 | 0.03 | 93 | 1011.2 |
| 20260502162247 | 53 | 123 | 5.0 | 8.0 | 0.00 | 0.03 | 0.03 | 92 | 1011.2 |
| 20260502161748 | 53 | 143 | 5.0 | 8.0 | 0.00 | 0.03 | 0.03 | 92 | 1011.3 |
| 20260502160747 | 53 | 114 | 4.0 | 6.0 | 0.00 | 0.03 | 0.03 | 92 | 1011.4 |
| 20260502160247 | 53 | 131 | 3.0 | 8.0 | 0.00 | 0.03 | 0.03 | 91 | 1011.4 |
| 20260502152248 | 54 | 105 | 5.0 | 7.0 | 0.00 | 0.03 | 0.03 | 90 | 1011.8 |
| 20260502151749 | 54 | 140 | 3.0 | 6.0 | 0.00 | 0.03 | 0.03 | 90 | 1012.1 |
| 20260502151248 | 54 | 130 | 4.0 | 7.0 | 0.00 | 0.03 | 0.03 | 89 | 1012.1 |
| 20260502150747 | 54 | 139 | 5.0 | 8.0 | 0.00 | 0.03 | 0.03 | 89 | 1012.2 |
| 20260502150247 | 54 | 128 | 5.0 | 8.0 | 0.01 | 0.03 | 0.03 | 89 | 1012.3 |
| 20260502130251 | 54 | 145 | 3.0 | 7.0 | 0.00 | 0.00 | 0.00 | 88 | 1013.4 |
| 20260502123250 | 55 | 145 | 6.0 | 10.0 | 0.00 | 0.00 | 0.00 | 90 | 1013.6 |
| 20260502122750 | 55 | 169 | 3.0 | 7.0 | 0.00 | 0.00 | 0.00 | 89 | 1013.6 |
| 20260502122249 | 55 | 165 | 6.0 | 10.0 | 0.00 | 0.00 | 0.00 | 89 | 1013.6 |
| 20260502121249 | 55 | 160 | 5.0 | 9.0 | 0.00 | 0.00 | 0.00 | 89 | 1013.7 |
| 20260502120749 | 55 | 167 | 3.0 | 7.0 | 0.00 | 0.00 | 0.00 | 89 | 1013.8 |
| 20260502120249 | 55 | 167 | 3.0 | 8.0 | 0.00 | 0.00 | 0.00 | 88 | 1013.9 |
| 20260502115749 | 55 | 180 | 1.0 | 7.0 | 0.00 | 0.00 | 0.00 | 89 | 1013.9 |
| 20260502115250 | 55 | 161 | 6.0 | 10.0 | 0.00 | 0.00 | 0.00 | 88 | 1013.9 |
| 20260502114750 | 55 | 155 | 4.0 | 8.0 | 0.00 | 0.00 | 0.00 | 89 | 1013.9 |
| 20260502114249 | 55 | 189 | 3.0 | 9.0 | 0.00 | 0.00 | 0.00 | 89 | 1013.9 |
| 20260502113251 | 55 | 144 | 6.0 | 12.0 | 0.00 | 0.00 | 0.00 | 88 | 1013.9 |
| 20260502112749 | 55 | 149 | 5.0 | 8.0 | 0.00 | 0.00 | 0.00 | 88 | 1013.9 |
| 20260502112250 | 55 | 185 | 4.0 | 12.0 | 0.00 | 0.00 | 0.00 | 88 | 1013.9 |
| 20260502111749 | 55 | 184 | 1.0 | 6.0 | 0.00 | 0.00 | 0.00 | 89 | 1013.9 |
| 20260502111250 | 55 | 173 | 3.0 | 7.0 | 0.00 | 0.00 | 0.00 | 89 | 1013.9 |
| 20260502110749 | 55 | 146 | 5.0 | 12.0 | 0.00 | 0.00 | 0.00 | 88 | 1013.9 |
| 20260502110249 | 55 | 175 | 5.0 | 9.0 | 0.00 | 0.00 | 0.00 | 89 | 1014.0 |
| 20260502105749 | 55 | 162 | 6.0 | 13.0 | 0.00 | 0.00 | 0.00 | 89 | 1014.0 |
| 20260502105250 | 55 | 164 | 5.0 | 9.0 | 0.00 | 0.00 | 0.00 | 89 | 1014.0 |
| 20260502104750 | 55 | 162 | 3.0 | 7.0 | 0.00 | 0.00 | 0.00 | 90 | 1014.0 |
| 20260502104249 | 55 | 171 | 5.0 | 9.0 | 0.00 | 0.00 | 0.00 | 89 | 1014.0 |
| 20260502103250 | 55 | 177 | 7.0 | 12.0 | 0.00 | 0.00 | 0.00 | 88 | 1014.0 |
| 20260502102749 | 55 | 139 | 6.0 | 10.0 | 0.00 | 0.00 | 0.00 | 89 | 1013.9 |
| 20260502102250 | 55 | 149 | 4.0 | 10.0 | 0.00 | 0.00 | 0.00 | 88 | 1014.0 |
| 20260502100250 | 56 | 177 | 4.0 | 10.0 | 0.00 | 0.00 | 0.00 | 87 | 1013.9 |
| 20260502090750 | 54 | 145 | 6.0 | 12.0 | 0.00 | 0.00 | 0.00 | 90 | 1014.3 |
| 20260502090251 | 54 | 147 | 6.0 | 12.0 | 0.00 | 0.00 | 0.00 | 90 | 1014.3 |
| 20260502071251 | 53 | 170 | 1.0 | 5.0 | 0.00 | 0.00 | 0.00 | 91 | 1014.5 |
| 20260502070251 | 53 | 146 | 1.0 | 5.0 | 0.00 | 0.00 | 0.00 | 92 | 1014.5 |
| 20260502065751 | 53 | 149 | 2.0 | 7.0 | 0.00 | 0.00 | 0.00 | 91 | 1014.5 |
| 20260502065252 | 53 | 165 | 4.0 | 7.0 | 0.00 | 0.00 | 0.00 | 92 | 1014.5 |
| 20260502064751 | 52 | 163 | 3.0 | 8.0 | 0.00 | 0.00 | 0.00 | 92 | 1014.6 |
| 20260502064253 | 52 | 155 | 1.0 | 6.0 | 0.00 | 0.00 | 0.00 | 92 | 1014.6 |
| 20260502063251 | 52 | 160 | 2.0 | 5.0 | 0.00 | 0.00 | 0.00 | 92 | 1014.6 |
| 20260502062752 | 52 | 210 | 2.0 | 8.0 | 0.00 | 0.00 | 0.00 | 92 | 1014.6 |
| 20260502062251 | 52 | 147 | 3.0 | 9.0 | 0.00 | 0.00 | 0.00 | 92 | 1014.6 |
| 20260502061752 | 52 | 168 | 2.0 | 6.0 | 0.00 | 0.00 | 0.00 | 93 | 1014.6 |
| 20260502061251 | 52 | 156 | 3.0 | 7.0 | 0.00 | 0.00 | 0.00 | 93 | 1014.6 |
| 20260502060752 | 52 | 177 | 2.0 | 6.0 | 0.00 | 0.00 | 0.00 | 93 | 1014.6 |
| 20260502055753 | 52 | 155 | 2.0 | 6.0 | 0.00 | 0.00 | 0.00 | 93 | 1014.6 |
| 20260502055252 | 52 | 170 | 1.0 | 5.0 | 0.00 | 0.00 | 0.00 | 93 | 1014.5 |
| 20260502054752 | 52 | 142 | 1.0 | 6.0 | 0.00 | 0.00 | 0.00 | 93 | 1014.5 |
| 20260502053752 | 52 | 160 | 1.0 | 5.0 | 0.00 | 0.00 | 0.00 | 93 | 1014.5 |
| 20260502053251 | 52 | 171 | 1.0 | 5.0 | 0.00 | 0.00 | 0.00 | 93 | 1014.6 |
| 20260502052753 | 52 | 169 | 2.0 | 6.0 | 0.00 | 0.00 | 0.00 | 93 | 1014.6 |
| 20260502052253 | 52 | 140 | 2.0 | 7.0 | 0.00 | 0.00 | 0.00 | 93 | 1014.6 |
| 20260502050752 | 52 | 142 | 2.0 | 6.0 | 0.00 | 0.00 | 0.00 | 93 | 1014.7 |
| 20260502045753 | 52 | 151 | 1.0 | 3.0 | 0.00 | 0.00 | 0.00 | 93 | 1014.8 |
| 20260502045252 | 52 | 145 | 1.0 | 3.0 | 0.00 | 0.00 | 0.00 | 92 | 1014.8 |
| 20260502044752 | 52 | 151 | 1.0 | 3.0 | 0.00 | 0.00 | 0.00 | 92 | 1014.7 |
| 20260502044254 | 52 | 141 | 1.0 | 3.0 | 0.00 | 0.00 | 0.00 | 92 | 1014.7 |
| 20260502043752 | 52 | 135 | 2.0 | 6.0 | 0.00 | 0.00 | 0.00 | 92 | 1014.8 |
| 20260502043254 | 52 | 173 | 2.0 | 5.0 | 0.00 | 0.00 | 0.00 | 92 | 1014.8 |
| 20260502042752 | 52 | 150 | 1.0 | 3.0 | 0.00 | 0.00 | 0.00 | 92 | 1014.9 |
| 20260502042253 | 52 | 153 | 1.0 | 6.0 | 0.00 | 0.00 | 0.00 | 92 | 1014.8 |
| 20260502041753 | 52 | 173 | 1.0 | 7.0 | 0.00 | 0.00 | 0.00 | 92 | 1014.9 |
| 20260502041252 | 52 | 173 | 2.0 | 6.0 | 0.00 | 0.00 | 0.00 | 92 | 1014.9 |
| 20260502040754 | 52 | 160 | 2.0 | 6.0 | 0.00 | 0.00 | 0.00 | 92 | 1014.9 |
| 20260502040252 | 52 | 151 | 2.0 | 6.0 | 0.00 | 0.00 | 0.00 | 92 | 1015.0 |
| 20260502035253 | 53 | 162 | 2.0 | 7.0 | 0.00 | 0.00 | 0.00 | 93 | 1015.1 |
| 20260502034754 | 53 | 139 | 1.0 | 5.0 | 0.00 | 0.00 | 0.00 | 93 | 1015.2 |
| 20260502034253 | 52 | 173 | 0.0 | 1.0 | 0.00 | 0.00 | 0.00 | 92 | 1015.2 |
| 20260502033253 | 52 | 204 | 0.0 | 1.0 | 0.00 | 0.00 | 0.00 | 93 | 1015.3 |
| 20260502032755 | 52 | 324 | 0.0 | 3.0 | 0.00 | 0.00 | 0.00 | 93 | 1015.3 |
| 20260502032253 | 52 | 157 | 0.0 | 0.0 | 0.00 | 0.00 | 0.00 | 93 | 1015.4 |
| 20260502031753 | 52 | 130 | 0.0 | 1.0 | 0.00 | 0.00 | 0.00 | 93 | 1015.4 |
| 20260502031254 | 52 | 158 | 0.0 | 1.0 | 0.00 | 0.00 | 0.00 | 93 | 1015.5 |
| 20260502030254 | 52 | 145 | 0.0 | 3.0 | 0.00 | 0.00 | 0.00 | 93 | 1015.5 |
| 20260502025753 | 52 | 180 | 1.0 | 2.0 | 0.00 | 0.00 | 0.00 | 93 | 1015.5 |
| 20260502025255 | 52 | 157 | 1.0 | 5.0 | 0.00 | 0.00 | 0.00 | 93 | 1015.4 |
| 20260502024253 | 53 | 158 | 0.0 | 5.0 | 0.00 | 0.00 | 0.00 | 93 | 1015.5 |
| 20260502023755 | 53 | 176 | 2.0 | 6.0 | 0.00 | 0.00 | 0.00 | 93 | 1015.6 |
| 20260502023254 | 53 | 190 | 0.0 | 2.0 | 0.00 | 0.00 | 0.00 | 93 | 1015.6 |
| 20260502022254 | 53 | 169 | 0.0 | 3.0 | 0.00 | 0.00 | 0.00 | 93 | 1015.6 |
| 20260502021254 | 52 | 161 | 1.0 | 5.0 | 0.00 | 0.00 | 0.00 | 93 | 1015.7 |
| 20260502020754 | 52 | 183 | 0.0 | 2.0 | 0.00 | 0.00 | 0.00 | 93 | 1015.8 |
| 20260502020254 | 53 | 302 | 0.0 | 1.0 | 0.00 | 0.00 | 0.00 | 93 | 1015.9 |
| 20260502015254 | 53 | 165 | 0.0 | 5.0 | 0.00 | 0.00 | 0.00 | 93 | 1016.1 |
| 20260502014255 | 53 | 155 | 0.0 | 2.0 | 0.00 | 0.00 | 0.00 | 93 | 1016.2 |
| 20260502013753 | 53 | 165 | 0.0 | 1.0 | 0.00 | 0.00 | 0.00 | 93 | 1016.3 |
| 20260502013254 | 53 | 169 | 0.0 | 2.0 | 0.00 | 0.00 | 0.00 | 94 | 1016.4 |
| 20260502012755 | 53 | 172 | 0.0 | 2.0 | 0.00 | 0.00 | 0.00 | 93 | 1016.4 |
| 20260502011754 | 53 | 180 | 0.0 | 1.0 | 0.00 | 0.00 | 0.00 | 93 | 1016.6 |
| 20260502011254 | 53 | 160 | 0.0 | 3.0 | 0.00 | 0.00 | 0.00 | 93 | 1016.6 |
| 20260502010754 | 53 | 145 | 0.0 | 2.0 | 0.00 | 0.00 | 0.00 | 93 | 1016.6 |
| 20260502005754 | 53 | 154 | 0.0 | 3.0 | 0.00 | 0.00 | 0.00 | 94 | 1016.7 |
| 20260502004754 | 53 | 152 | 1.0 | 2.0 | 0.00 | 0.00 | 0.00 | 94 | 1016.8 |
| 20260502004254 | 53 | 186 | 0.0 | 1.0 | 0.00 | 0.00 | 0.00 | 94 | 1016.9 |
| 20260502003755 | 53 | 148 | 0.0 | 1.0 | 0.00 | 0.00 | 0.00 | 94 | 1016.9 |
| 20260502003254 | 53 | 185 | 0.0 | 1.0 | 0.00 | 0.00 | 0.00 | 94 | 1017.0 |
| 20260502002756 | 53 | 154 | 0.0 | 1.0 | 0.00 | 0.00 | 0.00 | 94 | 1017.0 |
| 20260502002255 | 53 | 143 | 1.0 | 3.0 | 0.00 | 0.00 | 0.00 | 94 | 1017.0 |
| 20260502001755 | 52 | 153 | 1.0 | 3.0 | 0.00 | 0.00 | 0.00 | 94 | 1017.0 |
| 20260502001255 | 52 | 162 | 0.0 | 3.0 | 0.00 | 0.00 | 0.00 | 93 | 1016.9 |
| 20260502000756 | 53 | 135 | 0.0 | 2.0 | 0.00 | 0.00 | 0.00 | 93 | 1017.0 |
| 20260502000255 | 53 | 153 | 1.0 | 2.0 | 0.00 | 0.00 | 0.00 | 93 | 1017.0 |
| 20260501235755 | 53 | 156 | 0.0 | 0.0 | 0.00 | 0.00 | 0.00 | 93 | 1017.1 |
| 20260501235255 | 53 | 284 | 0.0 | 1.0 | 0.00 | 0.00 | 0.00 | 93 | 1017.2 |
| 20260501234755 | 53 | 204 | 0.0 | 1.0 | 0.00 | 0.00 | 0.00 | 93 | 1017.2 |
| 20260501234256 | 52 | 2 | 0.0 | 1.0 | 0.00 | 0.00 | 0.00 | 93 | 1017.2 |
| 20260501233755 | 53 | 201 | 0.0 | 1.0 | 0.00 | 0.00 | 0.00 | 93 | 1017.3 |
| 20260501233255 | 53 | 164 | 0.0 | 1.0 | 0.00 | 0.00 | 0.00 | 93 | 1017.2 |
| 20260501232255 | 53 | 154 | 0.0 | 1.0 | 0.00 | 0.00 | 0.00 | 93 | 1017.4 |
| 20260501231755 | 53 | 159 | 0.0 | 2.0 | 0.00 | 0.00 | 0.00 | 93 | 1017.4 |
| 20260501231256 | 53 | 130 | 0.0 | 1.0 | 0.00 | 0.00 | 0.00 | 93 | 1017.4 |
| 20260501230812 | 53 | 205 | 0.0 | 1.0 | 0.00 | 0.00 | 0.00 | 93 | 1017.3 |
| 20260501230255 | 53 | 196 | 0.0 | 1.0 | 0.00 | 0.00 | 0.00 | 93 | 1017.4 |
| 20260501225256 | 53 | 166 | 0.0 | 1.0 | 0.00 | 0.00 | 0.00 | 93 | 1017.4 |
| 20260501224756 | 53 | 208 | 0.0 | 1.0 | 0.00 | 0.00 | 0.00 | 93 | 1017.4 |
| 20260501224256 | 53 | 169 | 0.0 | 0.0 | 0.00 | 0.00 | 0.00 | 93 | 1017.5 |
| 20260501223756 | 53 | 137 | 0.0 | 2.0 | 0.00 | 0.00 | 0.00 | 93 | 1017.5 |
| 20260501222756 | 53 | 190 | 1.0 | 2.0 | 0.00 | 0.00 | 0.00 | 93 | 1017.6 |
| 20260501222256 | 53 | 122 | 0.0 | 2.0 | 0.00 | 0.00 | 0.00 | 92 | 1017.5 |
| 20260501221756 | 53 | 157 | 0.0 | 5.0 | 0.00 | 0.00 | 0.00 | 92 | 1017.5 |
| 20260501221256 | 53 | 185 | 0.0 | 3.0 | 0.00 | 0.00 | 0.00 | 92 | 1017.6 |
| 20260501220755 | 53 | 160 | 2.0 | 6.0 | 0.00 | 0.00 | 0.00 | 92 | 1017.6 |
| 20260501220256 | 54 | 329 | 0.0 | 2.0 | 0.00 | 0.00 | 0.00 | 92 | 1017.6 |
| 20260501215256 | 54 | 304 | 0.0 | 5.0 | 0.00 | 0.00 | 0.00 | 92 | 1017.6 |
| 20260501214756 | 54 | 216 | 0.0 | 5.0 | 0.00 | 0.00 | 0.00 | 92 | 1017.6 |
| 20260501214257 | 54 | 145 | 0.0 | 3.0 | 0.00 | 0.00 | 0.00 | 92 | 1017.7 |
| 20260501213256 | 54 | 156 | 0.0 | 3.0 | 0.00 | 0.00 | 0.00 | 92 | 1017.6 |
| 20260501212756 | 54 | 151 | 2.0 | 5.0 | 0.00 | 0.00 | 0.00 | 92 | 1017.7 |
| 20260501212256 | 54 | 168 | 1.0 | 3.0 | 0.00 | 0.00 | 0.00 | 91 | 1017.7 |
| 20260501211757 | 54 | 178 | 1.0 | 3.0 | 0.00 | 0.00 | 0.00 | 91 | 1017.7 |
| 20260501211257 | 54 | 157 | 0.0 | 1.0 | 0.00 | 0.00 | 0.00 | 91 | 1017.8 |
| 20260501210756 | 54 | 180 | 1.0 | 2.0 | 0.00 | 0.00 | 0.00 | 90 | 1017.8 |
| 20260501205757 | 54 | 342 | 0.0 | 2.0 | 0.00 | 0.00 | 0.00 | 91 | 1017.8 |
| 20260501205257 | 54 | 284 | 0.0 | 2.0 | 0.00 | 0.00 | 0.00 | 91 | 1017.9 |
| 20260501204756 | 54 | 336 | 0.0 | 1.0 | 0.00 | 0.00 | 0.00 | 91 | 1017.9 |
| 20260501204258 | 54 | 205 | 0.0 | 0.0 | 0.00 | 0.00 | 0.00 | 91 | 1017.9 |
| 20260501203756 | 54 | 156 | 1.0 | 3.0 | 0.00 | 0.00 | 0.00 | 90 | 1017.8 |
| 20260501203256 | 54 | 141 | 0.0 | 2.0 | 0.00 | 0.00 | 0.00 | 90 | 1017.8 |
| 20260501202756 | 54 | 46 | 1.0 | 3.0 | 0.00 | 0.00 | 0.00 | 90 | 1017.9 |
| 20260501202328 | 54 | 0 | 0.0 | 2.0 | 0.00 | 0.00 | 0.00 | 90 | 1017.9 |
| 20260501200757 | 54 | 194 | 0.0 | 1.0 | 0.00 | 0.00 | 0.00 | 90 | 1017.9 |
| 20260501200256 | 55 | 276 | 0.0 | 1.0 | 0.00 | 0.00 | 0.00 | 90 | 1017.9 |
| 20260501195757 | 55 | 190 | 0.0 | 1.0 | 0.00 | 0.00 | 0.00 | 90 | 1017.8 |
| 20260501195257 | 55 | 200 | 0.0 | 2.0 | 0.00 | 0.00 | 0.00 | 90 | 1017.7 |
| 20260501194758 | 55 | 255 | 0.0 | 3.0 | 0.00 | 0.00 | 0.00 | 90 | 1017.7 |
| 20260501194258 | 55 | 195 | 0.0 | 2.0 | 0.00 | 0.00 | 0.00 | 90 | 1017.6 |
| 20260501193258 | 55 | 154 | 1.0 | 3.0 | 0.00 | 0.00 | 0.00 | 89 | 1017.6 |
| 20260501192258 | 55 | 211 | 0.0 | 2.0 | 0.00 | 0.00 | 0.00 | 89 | 1017.6 |
| 20260501191757 | 55 | 165 | 0.0 | 1.0 | 0.00 | 0.00 | 0.00 | 89 | 1017.7 |
| 20260501191257 | 55 | 199 | 0.0 | 1.0 | 0.00 | 0.00 | 0.00 | 89 | 1017.6 |
| 20260501190757 | 55 | 84 | 0.0 | 2.0 | 0.00 | 0.00 | 0.00 | 89 | 1017.7 |